Worthington, MN

7:08 PM CST on February 07, 2016 (GMT -0600)
Worthington Municipal

Weather History for KOTG - October, 2011

Change the Weather History Date:

Sunday, October 30, 2011

  Actual Average Record
Temperature  
Mean Temperature 42 °F -  
Max Temperature 48 °F - - ()
Min Temperature 37 °F - - ()
Degree Days  
Heating Degree Days 22    
Moisture  
Dew Point 26 °F    
Average Humidity 54    
Maximum Humidity 75    
Minimum Humidity 39    
Precipitation  
Precipitation 0.00 in - - ()
Sea Level Pressure  
Sea Level Pressure 29.89 in    
Wind  
Wind Speed 14 mph (WNW)    
Max Wind Speed 31 mph    
Max Gust Speed 39 mph    
Visibility 10 miles    
Events      
T = Trace of Precipitation, MM = Missing Value Source: NWS Daily Summary

Daily Weather History Graph

Daily Weather History Graph

Search for Another Location

Airport or City:

Trip Planner

Search our weather history database for the weather conditions in past years. The results will help you decide how hot, cold, wet, or windy it might be!

Date:

Astronomy

Oct. 30, 2011 Rise Set
Actual Time 7:55 AM CDT 6:16 PM CDT
Civil Twilight 7:25 AM CDT 6:45 PM CDT
Nautical Twilight 6:51 AM CDT 7:19 PM CDT
Astronomical Twilight 6:18 AM CDT 7:52 PM CDT
Moon 12:20 PM CDT (10/30) 9:40 PM CDT (10/30)
Length of Visible Light 11h 20m
Length of Day
10h 20m
Waxing Crescent, 20% of the Moon is Illuminated
Oct 30
Waxing Crescent
Nov 2
First Quarter
Nov 10
Full
Nov 18
Last Quarter
Nov 25
New

Hourly Weather History & Observations

Time (CDT) Temp. Windchill Dew Point Humidity Pressure Visibility Wind Dir Wind Speed Gust Speed Precip Events Conditions
12:15 AM 44.6 °F 40.2 °F 21.2 °F 39% 29.82 in 10.0 mi South 8.1 mph - N/A   Scattered Clouds
12:35 AM 44.6 °F 39.7 °F 21.2 °F 39% 29.82 in 10.0 mi South 9.2 mph - N/A   Mostly Cloudy
12:55 AM 44.6 °F 39.2 °F 21.2 °F 39% 29.82 in 10.0 mi South 10.4 mph - N/A   Overcast
1:15 AM 44.6 °F 39.7 °F 21.2 °F 39% 29.82 in 10.0 mi South 9.2 mph - N/A   Overcast
1:35 AM 44.6 °F 40.7 °F 21.2 °F 39% 29.82 in 10.0 mi SSW 6.9 mph - N/A   Overcast
1:55 AM 42.8 °F 38.6 °F 21.2 °F 42% 29.83 in 10.0 mi SSW 6.9 mph - N/A   Overcast
2:15 AM 41.0 °F 35.8 °F 23.0 °F 49% 29.83 in 10.0 mi WSW 8.1 mph - N/A   Mostly Cloudy
2:55 AM 39.2 °F 33.6 °F 21.2 °F 49% 29.83 in 10.0 mi WSW 8.1 mph - N/A   Mostly Cloudy
3:15 AM 41.0 °F 38.0 °F 23.0 °F 49% 29.83 in 10.0 mi WNW 4.6 mph - N/A   Overcast
3:35 AM 42.8 °F 38.6 °F 24.8 °F 49% 29.82 in 10.0 mi NW 6.9 mph - N/A   Overcast
3:55 AM 44.6 °F 40.7 °F 26.6 °F 49% 29.82 in 10.0 mi WNW 6.9 mph - N/A   Overcast
4:15 AM 44.6 °F 38.8 °F 26.6 °F 49% 29.83 in 10.0 mi West 11.5 mph - N/A   Overcast
4:35 AM 44.6 °F 37.4 °F 26.6 °F 49% 29.83 in 10.0 mi WNW 16.1 mph 19.6 mph N/A   Overcast
4:55 AM 42.8 °F 35.1 °F 28.4 °F 57% 29.84 in 10.0 mi WNW 16.1 mph - N/A   Mostly Cloudy
5:15 AM 42.8 °F 34.8 °F 28.4 °F 57% 29.85 in 10.0 mi WNW 17.3 mph 27.6 mph N/A   Partly Cloudy
5:35 AM 39.2 °F 30.2 °F 30.2 °F 70% 29.85 in 10.0 mi WNW 17.3 mph 21.9 mph N/A   Clear
5:55 AM 39.2 °F 30.8 °F 30.2 °F 70% 29.85 in 10.0 mi WNW 15.0 mph - N/A   Clear
6:15 AM 39.2 °F 30.2 °F 30.2 °F 70% 29.86 in 10.0 mi WNW 17.3 mph 21.9 mph N/A   Clear
6:35 AM 39.2 °F 30.8 °F 30.2 °F 70% 29.87 in 10.0 mi West 15.0 mph - N/A   Clear
6:55 AM 39.2 °F 31.2 °F 30.2 °F 70% 29.88 in 10.0 mi West 13.8 mph - N/A   Clear
7:15 AM 39.2 °F 31.2 °F 32.0 °F 75% 29.88 in 10.0 mi WNW 13.8 mph - N/A   Scattered Clouds
7:35 AM 39.2 °F 30.2 °F 30.2 °F 70% 29.87 in 10.0 mi WNW 17.3 mph 20.7 mph N/A   Partly Cloudy
7:55 AM 39.2 °F 31.2 °F 30.2 °F 70% 29.85 in 10.0 mi WNW 13.8 mph 21.9 mph N/A   Clear
8:15 AM 37.4 °F 28.5 °F 30.2 °F 75% 29.86 in 10.0 mi WNW 15.0 mph - N/A   Clear
8:35 AM 39.2 °F 30.8 °F 30.2 °F 70% 29.86 in 10.0 mi WNW 15.0 mph - N/A   Mostly Cloudy
8:55 AM 39.2 °F 30.8 °F 30.2 °F 70% 29.87 in 10.0 mi WNW 15.0 mph - N/A   Partly Cloudy
9:15 AM 39.2 °F 31.2 °F 30.2 °F 70% 29.88 in 10.0 mi WNW 13.8 mph - N/A   Partly Cloudy
9:35 AM 39.2 °F 29.6 °F 30.2 °F 70% 29.89 in 10.0 mi WNW 19.6 mph - N/A   Partly Cloudy
9:55 AM 41.0 °F 32.2 °F 30.2 °F 65% 29.88 in 10.0 mi WNW 18.4 mph - N/A   Clear
10:15 AM 42.8 °F 33.5 °F 30.2 °F 61% 29.88 in 10.0 mi WNW 23.0 mph 27.6 mph N/A   Clear
10:35 AM - - - N/A% 29.87 in 10.0 mi WNW 24.2 mph 27.6 mph N/A   Clear
10:55 AM - - - N/A% 29.87 in 10.0 mi NW 28.8 mph 38.0 mph N/A   Clear
11:15 AM - - - N/A% 29.87 in 10.0 mi NW 27.6 mph 33.4 mph N/A   Clear
11:35 AM - - - N/A% 29.88 in 10.0 mi NW 29.9 mph 39.1 mph N/A   Clear
11:55 AM - - - N/A% 29.88 in 10.0 mi NW 31.1 mph 34.5 mph N/A   Scattered Clouds
12:35 PM 48.2 °F - 24.8 °F 40% 29.93 in 10.0 mi WNW 21.9 mph 32.2 mph N/A   Mostly Cloudy
12:55 PM - - - N/A% 29.92 in 10.0 mi NW 24.2 mph 31.1 mph N/A   Mostly Cloudy
1:15 PM - - - N/A% 29.92 in 10.0 mi NW 26.5 mph 34.5 mph N/A   Mostly Cloudy
1:35 PM - - - N/A% 29.92 in 10.0 mi WNW 28.8 mph 33.4 mph N/A   Mostly Cloudy
1:55 PM 46.4 °F 38.7 °F 24.8 °F 43% 29.92 in 10.0 mi NW 20.7 mph 27.6 mph N/A   Scattered Clouds
2:15 PM - - - N/A% 29.91 in 10.0 mi NW 26.5 mph 29.9 mph N/A   Scattered Clouds
2:35 PM 48.2 °F - 24.8 °F 40% 29.92 in 10.0 mi WNW 26.5 mph 31.1 mph N/A   Mostly Cloudy
2:55 PM 46.4 °F 38.5 °F 24.8 °F 43% 29.92 in 10.0 mi NW 21.9 mph 29.9 mph N/A   Mostly Cloudy
3:35 PM - - - N/A% 29.92 in 10.0 mi WNW 24.2 mph 29.9 mph N/A   Mostly Cloudy
3:55 PM - - - N/A% 29.93 in 10.0 mi NW 24.2 mph 32.2 mph N/A   Mostly Cloudy
4:15 PM 46.4 °F 38.1 °F 24.8 °F 43% 29.95 in 10.0 mi NW 24.2 mph 28.8 mph N/A   Overcast
4:35 PM - - - N/A% 29.95 in 10.0 mi NW 23.0 mph 29.9 mph N/A   Overcast
4:55 PM 44.6 °F 36.6 °F 24.8 °F 46% 29.96 in 10.0 mi NW 19.6 mph 29.9 mph N/A   Overcast
5:15 PM 44.6 °F 36.9 °F 24.8 °F 46% 29.97 in 10.0 mi NW 18.4 mph 26.5 mph N/A   Overcast
5:35 PM - - - N/A% 29.97 in 10.0 mi NW 23.0 mph 27.6 mph N/A   Overcast
6:15 PM 42.8 °F 35.4 °F 23.0 °F 46% 29.99 in 10.0 mi NW 15.0 mph - N/A   Overcast
6:35 PM 42.8 °F 35.8 °F 24.8 °F 49% 30.00 in 10.0 mi NW 13.8 mph - N/A   Overcast
6:55 PM 42.8 °F 36.6 °F 24.8 °F 49% 30.01 in 10.0 mi NW 11.5 mph - N/A   Overcast
7:15 PM 42.8 °F 36.2 °F 24.8 °F 49% 30.01 in 10.0 mi NW 12.7 mph - N/A   Overcast
7:35 PM 42.8 °F 35.8 °F 24.8 °F 49% 30.02 in 10.0 mi NW 13.8 mph - N/A   Overcast
7:55 PM 42.8 °F 35.8 °F 24.8 °F 49% 30.02 in 10.0 mi NW 13.8 mph - N/A   Overcast
8:15 PM 41.0 °F 33.1 °F 24.8 °F 53% 30.02 in 10.0 mi NW 15.0 mph - N/A   Overcast
8:35 PM 39.2 °F 32.0 °F 24.8 °F 56% 30.02 in 10.0 mi NW 11.5 mph - N/A   Overcast
8:55 PM 39.2 °F 32.5 °F 26.6 °F 61% 30.02 in 10.0 mi NW 10.4 mph - N/A   Overcast
9:15 PM 39.2 °F 32.5 °F 26.6 °F 61% 30.02 in 10.0 mi NW 10.4 mph - N/A   Overcast
9:35 PM 39.2 °F 33.0 °F 26.6 °F 61% 30.02 in 10.0 mi WNW 9.2 mph - N/A   Overcast
9:55 PM 39.2 °F 31.6 °F 26.6 °F 61% 30.03 in 10.0 mi NW 12.7 mph - N/A   Overcast
10:15 PM 39.2 °F 32.5 °F 26.6 °F 61% 30.03 in 10.0 mi NW 10.4 mph - N/A   Overcast
10:35 PM 37.4 °F 30.3 °F 24.8 °F 60% 30.03 in 10.0 mi WNW 10.4 mph - N/A   Scattered Clouds
10:55 PM 35.6 °F 29.2 °F 24.8 °F 65% 30.03 in 10.0 mi West 8.1 mph - N/A   Clear
11:15 PM 35.6 °F 28.6 °F 23.0 °F 60% 30.01 in 10.0 mi WNW 9.2 mph - N/A   Clear
11:35 PM 33.8 °F 27.0 °F 23.0 °F 65% 29.99 in 10.0 mi WNW 8.1 mph - N/A   Clear
11:55 PM 33.8 °F 27.0 °F 24.8 °F 70% 30.00 in 10.0 mi West 8.1 mph - N/A   Clear